Location: ??????
(38.0677°N, 22.9870°E)
Time: 09:46:44
(UTC+00:00)

Cosmos 2333 Rocket - Pass Details

Date: 23 May 2024
Orbit: 838 x 863 km, 70.8° (Epoch: 19 June)

Event Time Altitude Azimuth Distance (km) Brightness Sun altitude
Rises 02:35:03 0° 321° (NW) 3,427 5.3 -7.0°
Reaches altitude 10° 02:38:06 10° 305° (NW) 2,490 4.4 -6.5°
Maximum altitude 02:42:09 20° 260° (W) 1,866 3.5 -5.8°
Drops below altitude 10° 02:46:13 10° 214° (SW) 2,488 4.1 -5.2°
Sets 02:49:17 0° 198° (SSW) 3,423 4.9 -4.6°
